Location: Dal�� Lhota
(48.7500°N, 14.0167°E)
Time: 02:25:34
(UTC+00:00)

Vanguard 3 - Pass Details

Date: 31 July 2021
Orbit: 510 x 3260 km, 33.3° (Epoch: 16 September)

Event Time Altitude Azimuth Distance (km) Brightness Sun altitude
Rises 14:56:40 0° 193° (SSW) 5,273 11.6 35.4°
Reaches altitude 10° 15:01:00 10° 178° (S) 4,717 11.3 34.7°
Maximum altitude 15:10:31 22° 136° (SE) 4,588 10.9 33.1°
Drops below altitude 10° 15:22:27 10° 96° (E) 6,082 11.2 31.2°
Sets 15:29:10 0° 84° (E) 7,227 11.4 30.1°
